• In Österreich
  • Länderverzeichnis
  • Für 7 Tage
  • Wassertemperatur
  • Satellitenkarten
  • Wetterkarte
  • News
  • Widgets
  • user-avatar
    Anmelden

    Stündliche Wetter Ghanzi

    Heute, 21 Februar, Mittwoch

    Zeit Temperatur Niederschläge Wind Luftdruck Luftfeuchtigkeit
    00:00 +23°C° 0 mm 2 m/S 710 mmHg 16%
    01:00 +23°C° 0 mm 2 m/S 710 mmHg 17%
    02:00 +21°C° 0 mm 2 m/S 710 mmHg 17%
    03:00 +21°C° 0 mm 2 m/S 710 mmHg 18%
    04:00 +20°C° 0 mm 2 m/S 710 mmHg 19%
    05:00 +20°C° 0 mm 2 m/S 710 mmHg 19%
    06:00 +20°C° 0 mm 2 m/S 710 mmHg 19%
    07:00 +21°C° 0 mm 1 m/S 710 mmHg 20%
    08:00 +24°C° 0 mm 2 m/S 710 mmHg 17%
    09:00 +26°C° 0 mm 2 m/S 710 mmHg 15%
    10:00 +29°C° 0 mm 3 m/S 711 mmHg 13%
    11:00 +31°C° 0 mm 3 m/S 710 mmHg 12%
    12:00 +33°C° 0 mm 3 m/S 710 mmHg 11%
    13:00 +35°C° 0 mm 3 m/S 709 mmHg 9%
    14:00 +35°C° 0 mm 4 m/S 709 mmHg 10%
    15:00 +35°C° 0 mm 4 m/S 708 mmHg 10%
    16:00 +36°C° 0 mm 5 m/S 708 mmHg 10%
    17:00 +33°C° 0 mm 3 m/S 708 mmHg 12%
    18:00 +29°C° 0 mm 2 m/S 707 mmHg 14%
    19:00 +27°C° 0 mm 1 m/S 707 mmHg 16%
    20:00 +26°C° 0 mm 3 m/S 708 mmHg 17%
    21:00 +26°C° 0 mm 4 m/S 708 mmHg 18%
    22:00 +25°C° 0 mm 5 m/S 709 mmHg 19%
    23:00 +23°C° 0 mm 4 m/S 709 mmHg 20%

    Morgen, 22 Februar, Donnerstag

    Zeit Temperatur Niederschläge Wind Luftdruck Luftfeuchtigkeit
    00:00 +22°C° 0 mm 4 m/S 709 mmHg 22%
    01:00 +21°C° 0 mm 4 m/S 709 mmHg 24%
    02:00 +20°C° 0 mm 4 m/S 708 mmHg 26%
    03:00 +19°C° 0 mm 4 m/S 708 mmHg 28%
    04:00 +18°C° 0 mm 4 m/S 708 mmHg 30%
    05:00 +19°C° 0 mm 4 m/S 708 mmHg 31%
    06:00 +19°C° 0 mm 4 m/S 709 mmHg 32%
    07:00 +19°C° 0 mm 4 m/S 709 mmHg 33%
    08:00 +22°C° 0 mm 5 m/S 710 mmHg 28%
    09:00 +25°C° 0 mm 5 m/S 710 mmHg 24%
    10:00 +28°C° 0 mm 6 m/S 711 mmHg 20%
    11:00 +30°C° 0 mm 5 m/S 710 mmHg 18%
    12:00 +32°C° 0 mm 5 m/S 710 mmHg 15%
    13:00 +34°C° 0 mm 4 m/S 709 mmHg 13%
    14:00 +34°C° 0 mm 5 m/S 709 mmHg 13%
    15:00 +34°C° 0 mm 5 m/S 709 mmHg 13%
    16:00 +34°C° 0 mm 5 m/S 709 mmHg 13%
    17:00 +32°C° 0 mm 5 m/S 709 mmHg 17%
    18:00 +29°C° 0 mm 6 m/S 710 mmHg 20%
    19:00 +27°C° 0 mm 6 m/S 710 mmHg 23%
    20:00 +26°C° 0 mm 6 m/S 710 mmHg 29%
    21:00 +23°C° 0 mm 5 m/S 710 mmHg 34%
    22:00 +22°C° 0 mm 5 m/S 710 mmHg 40%
    23:00 +21°C° 0 mm 5 m/S 710 mmHg 42%

    übermorgen, 23 Februar, Freitag

    Zeit Temperatur Niederschläge Wind Luftdruck Luftfeuchtigkeit
    00:00 +21°C° 0 mm 4 m/S 710 mmHg 45%
    01:00 +20°C° 0 mm 4 m/S 710 mmHg 48%
    02:00 +20°C° 0 mm 3 m/S 710 mmHg 49%
    03:00 +19°C° 0 mm 3 m/S 709 mmHg 50%
    04:00 +19°C° 0 mm 3 m/S 709 mmHg 51%
    05:00 +19°C° 0 mm 3 m/S 709 mmHg 49%
    06:00 +19°C° 0 mm 3 m/S 710 mmHg 48%
    07:00 +20°C° 0 mm 3 m/S 710 mmHg 46%
    08:00 +24°C° 0 mm 3 m/S 710 mmHg 37%
    09:00 +27°C° 0 mm 4 m/S 711 mmHg 29%
    10:00 +30°C° 0 mm 5 m/S 711 mmHg 20%
    11:00 +33°C° 0 mm 5 m/S 710 mmHg 17%
    12:00 +35°C° 0 mm 5 m/S 709 mmHg 14%
    13:00 +37°C° 0 mm 5 m/S 708 mmHg 12%
    14:00 +38°C° 0 mm 6 m/S 708 mmHg 11%
    15:00 +38°C° 0 mm 6 m/S 708 mmHg 11%
    16:00 +39°C° 0 mm 7 m/S 707 mmHg 11%
    17:00 +36°C° 0 mm 6 m/S 708 mmHg 13%
    18:00 +34°C° 0 mm 5 m/S 708 mmHg 14%
    19:00 +32°C° 0 mm 4 m/S 709 mmHg 16%
    20:00 +32°C° 0 mm 5 m/S 709 mmHg 16%
    21:00 +30°C° 0 mm 6 m/S 710 mmHg 16%
    22:00 +31°C° 0 mm 8 m/S 710 mmHg 16%
    23:00 +28°C° 0 mm 7 m/S 710 mmHg 16%

    24 Februar, Samstag

    Zeit Temperatur Niederschläge Wind Luftdruck Luftfeuchtigkeit
    00:00 +27°C° 0 mm 7 m/S 710 mmHg 15%
    01:00 +26°C° 0 mm 7 m/S 711 mmHg 15%
    02:00 +24°C° 0 mm 6 m/S 711 mmHg 14%
    03:00 +23°C° 0 mm 6 m/S 711 mmHg 13%
    04:00 +22°C° 0 mm 5 m/S 711 mmHg 12%
    05:00 +21°C° 0 mm 5 m/S 712 mmHg 13%
    06:00 +21°C° 0 mm 5 m/S 712 mmHg 14%
    07:00 +20°C° 0 mm 5 m/S 713 mmHg 15%
    08:00 +23°C° 0 mm 6 m/S 714 mmHg 15%
    09:00 +26°C° 0 mm 7 m/S 714 mmHg 16%
    10:00 +28°C° 0 mm 8 m/S 714 mmHg 16%
    11:00 +31°C° 0 mm 8 m/S 714 mmHg 14%
    12:00 +32°C° 0 mm 8 m/S 713 mmHg 13%
    13:00 +33°C° 0 mm 8 m/S 713 mmHg 11%
    14:00 +33°C° 0 mm 7 m/S 713 mmHg 10%
    15:00 +33°C° 0 mm 7 m/S 713 mmHg 10%
    16:00 +33°C° 0 mm 6 m/S 712 mmHg 10%
    17:00 +30°C° 0 mm 6 m/S 713 mmHg 13%
    18:00 +28°C° 0 mm 5 m/S 713 mmHg 15%
    19:00 +26°C° 0 mm 4 m/S 713 mmHg 18%
    20:00 +25°C° 0 mm 4 m/S 713 mmHg 21%
    21:00 +23°C° 0 mm 4 m/S 714 mmHg 23%
    22:00 +22°C° 0 mm 4 m/S 714 mmHg 26%
    23:00 +21°C° 0 mm 4 m/S 714 mmHg 29%

    25 Februar, Sonntag

    Zeit Temperatur Niederschläge Wind Luftdruck Luftfeuchtigkeit
    00:00 +20°C° 0 mm 4 m/S 714 mmHg 32%
    01:00 +20°C° 0 mm 5 m/S 713 mmHg 35%
    02:00 +19°C° 0 mm 4 m/S 713 mmHg 39%
    03:00 +18°C° 0 mm 4 m/S 713 mmHg 42%
    04:00 +18°C° 0 mm 4 m/S 713 mmHg 45%
    05:00 +18°C° 0 mm 4 m/S 714 mmHg 45%
    06:00 +18°C° 0 mm 4 m/S 714 mmHg 46%
    07:00 +18°C° 0 mm 3 m/S 714 mmHg 47%
    08:00 +20°C° 0 mm 3 m/S 714 mmHg 41%
    09:00 +24°C° 0 mm 3 m/S 715 mmHg 35%
    10:00 +27°C° 0 mm 3 m/S 715 mmHg 29%
    11:00 +28°C° 0 mm 3 m/S 714 mmHg 24%
    12:00 +30°C° 0 mm 2 m/S 714 mmHg 20%
    13:00 +31°C° 0 mm 2 m/S 713 mmHg 16%
    14:00 +32°C° 0 mm 2 m/S 713 mmHg 15%
    15:00 +33°C° 0 mm 3 m/S 712 mmHg 14%
    16:00 +34°C° 0 mm 3 m/S 712 mmHg 13%
    17:00 +31°C° 0 mm 3 m/S 712 mmHg 14%
    18:00 +29°C° 0 mm 3 m/S 713 mmHg 16%
    19:00 +27°C° 0 mm 3 m/S 713 mmHg 18%
    20:00 +27°C° 0 mm 3 m/S 713 mmHg 19%
    21:00 +26°C° 0 mm 3 m/S 713 mmHg 21%
    22:00 +25°C° 0 mm 3 m/S 713 mmHg 22%
    23:00 +25°C° 0 mm 3 m/S 713 mmHg 23%

    26 Februar, Montag

    Zeit Temperatur Niederschläge Wind Luftdruck Luftfeuchtigkeit
    00:00 +24°C° 0 mm 3 m/S 712 mmHg 24%
    01:00 +24°C° 0 mm 2 m/S 712 mmHg 24%
    02:00 +22°C° 0 mm 3 m/S 712 mmHg 25%
    03:00 +21°C° 0 mm 3 m/S 712 mmHg 26%
    04:00 +21°C° 0 mm 3 m/S 712 mmHg 27%
    05:00 +21°C° 0 mm 3 m/S 712 mmHg 27%
    06:00 +21°C° 0 mm 3 m/S 713 mmHg 28%
    07:00 +21°C° 0 mm 3 m/S 713 mmHg 28%
    08:00 +24°C° 0 mm 3 m/S 713 mmHg 24%
    09:00 +26°C° 0 mm 3 m/S 714 mmHg 21%
    10:00 +29°C° 0 mm 3 m/S 714 mmHg 17%
    11:00 +30°C° 0 mm 3 m/S 714 mmHg 16%
    12:00 +31°C° 0 mm 3 m/S 713 mmHg 14%
    13:00 +34°C° 0 mm 2 m/S 713 mmHg 13%
    14:00 +34°C° 0 mm 3 m/S 713 mmHg 12%
    15:00 +34°C° 0 mm 3 m/S 712 mmHg 12%
    16:00 +35°C° 0 mm 3 m/S 712 mmHg 12%
    17:00 +33°C° 0 mm 3 m/S 712 mmHg 14%
    18:00 +30°C° 0 mm 4 m/S 713 mmHg 16%
    19:00 +28°C° 0 mm 4 m/S 713 mmHg 18%
    20:00 +27°C° 0 mm 4 m/S 713 mmHg 20%
    21:00 +26°C° 0 mm 4 m/S 713 mmHg 22%
    22:00 +25°C° 0 mm 5 m/S 714 mmHg 24%
    23:00 +23°C° 0 mm 5 m/S 713 mmHg 26%
    Mehr zeigen